Crawfordville, GA

9:16 PM EST on February 23, 2017 (GMT -0500)
Dublin

Weather History for KDBN - October, 2011

Change the Weather History Date:

Saturday, October 29, 2011

  Actual Average Record
Temperature  
Mean Temperature 54 °F -  
Max Temperature 66 °F 75 °F 86 °F (1974)
Min Temperature 42 °F 45 °F 28 °F (1976)
Degree Days  
Heating Degree Days 11    
Growing Degree Days 4 (Base 50)    
Moisture  
Dew Point 45 °F    
Average Humidity 73    
Maximum Humidity 94    
Minimum Humidity 34    
Precipitation  
Precipitation 0.00 in - - ()
Sea Level Pressure  
Sea Level Pressure 30.02 in    
Wind  
Wind Speed 6 mph (North)    
Max Wind Speed 15 mph    
Max Gust Speed 21 mph    
Visibility 10 miles    
Events      
Averages and records for this station are not official NWS values.
T = Trace of Precipitation, MM = Missing Value Source: NWS Daily Summary

Daily Weather History Graph

Daily Weather History Graph

Search for Another Location

Airport or City:

Trip Planner

Search our weather history database for the weather conditions in past years. The results will help you decide how hot, cold, wet, or windy it might be!

Date:

Astronomy

Oct. 29, 2011 Rise Set
Actual Time 7:47 AM EDT 6:42 PM EDT
Civil Twilight 7:22 AM EDT 7:08 PM EDT
Nautical Twilight 6:53 AM EDT 7:37 PM EDT
Astronomical Twilight 6:24 AM EDT 8:06 PM EDT
Moon 10:59 AM EDT (10/29) 9:14 PM EDT (10/29)
Length of Visible Light 11h 46m
Length of Day
10h 54m
Waxing Crescent, 11% of the Moon is Illuminated
Oct 29
Waxing Crescent
Nov 2
First Quarter
Nov 10
Full
Nov 18
Last Quarter
Nov 25
New

Hourly Weather History & Observations

Time (EDT) Temp. Windchill Dew Point Humidity Pressure Visibility Wind Dir Wind Speed Gust Speed Precip Events Conditions
12:15 AM 66.2 °F - 60.8 °F 83% 29.91 in 10.0 mi North 4.6 mph - N/A   Overcast
12:35 AM 64.4 °F - 60.8 °F 88% 29.91 in 10.0 mi Calm Calm - N/A   Overcast
12:55 AM 62.6 °F - 60.8 °F 94% 29.91 in 10.0 mi Calm Calm - N/A   Mostly Cloudy
1:15 AM 62.6 °F - 60.8 °F 94% 29.90 in 10.0 mi Calm Calm - N/A   Overcast
1:35 AM 62.6 °F - 60.8 °F 94% 29.90 in 10.0 mi North 4.6 mph - N/A   Mostly Cloudy
2:15 AM 62.6 °F - 60.8 °F 94% 29.90 in 10.0 mi Calm Calm - N/A   Overcast
2:55 AM 60.8 °F - 59.0 °F 94% 29.91 in 10.0 mi NNW 6.9 mph - N/A   Overcast
3:15 AM 60.8 °F - 59.0 °F 94% 29.90 in 10.0 mi NNW 6.9 mph - N/A   Overcast
3:35 AM 60.8 °F - 57.2 °F 88% 29.91 in 10.0 mi NNW 9.2 mph 17.3 mph N/A   Overcast
3:55 AM 59.0 °F - 55.4 °F 88% 29.91 in 10.0 mi North 5.8 mph - N/A   Overcast
4:15 AM 57.2 °F - 53.6 °F 88% 29.93 in 10.0 mi NNW 15.0 mph 18.4 mph N/A   Overcast
4:35 AM 55.4 °F - 51.8 °F 88% 29.95 in 10.0 mi North 11.5 mph 19.6 mph N/A   Overcast
4:55 AM 53.6 °F - 51.8 °F 94% 29.96 in 10.0 mi NNW 12.7 mph 19.6 mph N/A   Overcast
5:15 AM 51.8 °F - 50.0 °F 94% 29.95 in 10.0 mi North 8.1 mph - N/A   Overcast
5:35 AM 51.8 °F - 50.0 °F 94% 29.97 in 10.0 mi North 9.2 mph - N/A   Overcast
5:55 AM 51.8 °F - 48.2 °F 88% 29.97 in 10.0 mi NNW 12.7 mph 16.1 mph N/A   Overcast
6:15 AM 51.8 °F - 46.4 °F 82% 29.98 in 10.0 mi NNW 9.2 mph - N/A   Overcast
6:35 AM 50.0 °F - 46.4 °F 87% 29.99 in 10.0 mi North 10.4 mph 18.4 mph N/A   Overcast
6:55 AM 50.0 °F - 46.4 °F 87% 30.01 in 10.0 mi North 8.1 mph 16.1 mph N/A   Overcast
7:15 AM 50.0 °F - 46.4 °F 87% 30.01 in 10.0 mi North 6.9 mph 16.1 mph N/A   Overcast
7:35 AM 50.0 °F - 46.4 °F 87% 30.02 in 10.0 mi North 3.5 mph - N/A   Overcast
7:55 AM 50.0 °F - 46.4 °F 87% 30.01 in 10.0 mi North 5.8 mph - N/A   Overcast
8:15 AM 48.2 °F - 44.6 °F 87% 30.02 in 10.0 mi North 5.8 mph - N/A   Overcast
8:35 AM 50.0 °F - 44.6 °F 82% 30.02 in 10.0 mi North 5.8 mph - N/A   Overcast
8:55 AM 50.0 °F - 44.6 °F 82% 30.02 in 10.0 mi North 6.9 mph - N/A   Overcast
9:15 AM 50.0 °F - 44.6 °F 82% 30.03 in 10.0 mi NNW 10.4 mph 16.1 mph N/A   Overcast
9:35 AM 50.0 °F - 44.6 °F 82% 30.04 in 10.0 mi North 12.7 mph 18.4 mph N/A   Overcast
9:55 AM 50.0 °F - 44.6 °F 82% 30.05 in 10.0 mi North 10.4 mph - N/A   Overcast
10:15 AM 50.0 °F - 44.6 °F 82% 30.06 in 10.0 mi NNW 11.5 mph - N/A   Overcast
10:35 AM 50.0 °F - 44.6 °F 82% 30.06 in 10.0 mi North 9.2 mph - N/A   Overcast
11:15 AM 51.8 °F - 44.6 °F 76% 30.05 in 10.0 mi NNW 9.2 mph - N/A   Overcast
11:35 AM 53.6 °F - 44.6 °F 72% 30.05 in 10.0 mi NNW 10.4 mph - N/A   Overcast
11:55 AM 53.6 °F - 44.6 °F 72% 30.06 in 10.0 mi NNW 12.7 mph - N/A   Overcast
12:15 PM 55.4 °F - 44.6 °F 67% 30.06 in 10.0 mi NNW 10.4 mph 16.1 mph N/A   Overcast
12:35 PM 57.2 °F - 44.6 °F 63% 30.05 in 10.0 mi NNW 9.2 mph 18.4 mph N/A   Mostly Cloudy
12:55 PM 55.4 °F - 44.6 °F 67% 30.05 in 10.0 mi North 10.4 mph - N/A   Mostly Cloudy
1:15 PM 59.0 °F - 42.8 °F 55% 30.04 in 10.0 mi NNW 10.4 mph - N/A   Scattered Clouds
1:55 PM 60.8 °F - 42.8 °F 52% 30.03 in 10.0 mi NNW 9.2 mph - N/A   Clear
2:15 PM 60.8 °F - 41.0 °F 48% 30.03 in 10.0 mi North 10.4 mph - N/A   Clear
2:35 PM 60.8 °F - 41.0 °F 48% 30.03 in 10.0 mi NNW 11.5 mph 16.1 mph N/A   Clear
2:55 PM 62.6 °F - 41.0 °F 45% 30.02 in 10.0 mi NNE 8.1 mph 11.5 mph N/A   Clear
3:15 PM 62.6 °F - 41.0 °F 45% 30.02 in 10.0 mi NNE 9.2 mph - N/A   Clear
3:35 PM 62.6 °F - 39.2 °F 42% 30.02 in 10.0 mi North 10.4 mph - N/A   Clear
3:55 PM 62.6 °F - 39.2 °F 42% 30.02 in 10.0 mi North 8.1 mph - N/A   Clear
4:15 PM 62.6 °F - 33.8 °F 34% 30.02 in 10.0 mi NNE 12.7 mph 20.7 mph N/A   Clear
4:35 PM 62.6 °F - 33.8 °F 34% 30.02 in 10.0 mi NNE 10.4 mph 19.6 mph N/A   Clear
4:55 PM 62.6 °F - 33.8 °F 34% 30.03 in 10.0 mi North 8.1 mph 18.4 mph N/A   Clear
5:15 PM 62.6 °F - 35.6 °F 37% 30.04 in 10.0 mi North 9.2 mph - N/A   Clear
5:35 PM 60.8 °F - 33.8 °F 36% 30.04 in 10.0 mi North 9.2 mph - N/A   Clear
5:55 PM 60.8 °F - 33.8 °F 36% 30.04 in 10.0 mi North 5.8 mph - N/A   Clear
6:15 PM 59.0 °F - 35.6 °F 42% 30.05 in 10.0 mi North 4.6 mph - N/A   Clear
6:35 PM 59.0 °F - 35.6 °F 42% 30.05 in 10.0 mi North 4.6 mph - N/A   Clear
6:55 PM 55.4 °F - 35.6 °F 47% 30.06 in 10.0 mi North 3.5 mph - N/A   Clear
7:15 PM 53.6 °F - 37.4 °F 54% 30.06 in 10.0 mi Calm Calm - N/A   Clear
7:35 PM 50.0 °F - 41.0 °F 71% 30.07 in 10.0 mi Calm Calm - N/A   Clear
8:15 PM 44.6 °F - 41.0 °F 87% 30.09 in 10.0 mi Calm Calm - N/A   Clear
8:35 PM 42.8 °F - 41.0 °F 93% 30.09 in 10.0 mi Calm Calm - N/A   Clear
8:55 PM 42.8 °F - 41.0 °F 93% 30.10 in 10.0 mi Calm Calm - N/A   Clear
9:15 PM 42.8 °F - 41.0 °F 93% 30.11 in 10.0 mi Calm Calm - N/A   Clear
9:35 PM 42.8 °F - 41.0 °F 93% 30.12 in 10.0 mi Calm Calm - N/A   Clear
9:55 PM 42.8 °F - 41.0 °F 93% 30.14 in 10.0 mi Calm Calm - N/A   Clear
10:15 PM 44.6 °F 42.2 °F 37.4 °F 76% 30.14 in 10.0 mi NNW 4.6 mph - N/A   Clear
10:35 PM 48.2 °F - 35.6 °F 62% 30.15 in 10.0 mi North 3.5 mph - N/A   Clear
10:55 PM 50.0 °F - 33.8 °F 54% 30.16 in 10.0 mi NNE 3.5 mph - N/A   Clear
11:15 PM 48.2 °F - 35.6 °F 62% 30.17 in 10.0 mi NNE 4.6 mph - N/A   Clear
11:35 PM 46.4 °F - 35.6 °F 66% 30.18 in 10.0 mi Calm Calm - N/A   Clear
11:55 PM 42.8 °F - 37.4 °F 81% 30.18 in 10.0 mi Calm Calm - N/A   Clear